| time (UTC) | temp F | wind direction | speed MPH | gust MPH | rain 1hr in | rain 24hr in | rain mn in | humidity % | barometer mb |
| 20260503031525 | 39 | 281 | 0.0 | 1.0 | 0.00 | 0.16 | 0.16 | 69 | 1017.0 |
| 20260503030034 | 39 | 281 | 0.0 | 0.0 | 0.00 | 0.16 | 0.16 | 68 | 1017.0 |
| 20260503024520 | 39 | 281 | 0.0 | 1.0 | 0.00 | 0.16 | 0.16 | 68 | 1017.1 |
| 20260503023021 | 38 | 289 | 0.0 | 1.0 | 0.00 | 0.16 | 0.16 | 68 | 1017.3 |
| 20260503021525 | 38 | 302 | 0.0 | 0.0 | 0.00 | 0.16 | 0.16 | 69 | 1017.2 |
| 20260503020026 | 39 | 302 | 0.0 | 0.0 | 0.00 | 0.16 | 0.16 | 68 | 1017.2 |
| 20260503014526 | 39 | 302 | 0.0 | 1.0 | 0.00 | 0.16 | 0.16 | 68 | 1017.2 |
| 20260503013010 | 38 | 305 | 0.0 | 0.0 | 0.00 | 0.16 | 0.16 | 67 | 1017.2 |
| 20260503011506 | 39 | 305 | 0.0 | 0.0 | 0.00 | 0.16 | 0.16 | 66 | 1017.2 |
| 20260503010008 | 40 | 305 | 0.0 | 0.0 | 0.00 | 0.16 | 0.16 | 65 | 1017.0 |
| 20260503004513 | 40 | 305 | 0.0 | 0.0 | 0.00 | 0.16 | 0.16 | 65 | 1017.1 |
| 20260503003019 | 40 | 305 | 0.0 | 1.0 | 0.00 | 0.16 | 0.16 | 64 | 1017.0 |
| 20260503001506 | 41 | 278 | 0.0 | 1.0 | 0.00 | 0.16 | 0.16 | 64 | 1017.0 |
| 20260503000006 | 41 | 271 | 0.0 | 1.0 | 0.00 | 0.16 | 0.16 | 63 | 1016.9 |
| 20260502234508 | 41 | 269 | 0.0 | 1.0 | 0.00 | 0.16 | 0.16 | 62 | 1016.7 |
| 20260502233026 | 41 | 250 | 1.0 | 3.0 | 0.00 | 0.16 | 0.16 | 62 | 1016.8 |
| 20260502231517 | 41 | 270 | 1.0 | 3.0 | 0.00 | 0.16 | 0.16 | 62 | 1016.8 |
| 20260502230002 | 41 | 316 | 1.0 | 6.0 | 0.00 | 0.16 | 0.16 | 62 | 1016.9 |
| 20260502224506 | 41 | 43 | 1.0 | 5.0 | 0.00 | 0.16 | 0.16 | 63 | 1016.9 |
| 20260502223009 | 41 | 268 | 1.0 | 3.0 | 0.00 | 0.16 | 0.16 | 63 | 1016.9 |
| 20260502221516 | 41 | 246 | 1.0 | 6.0 | 0.00 | 0.16 | 0.16 | 63 | 1017.0 |
| 20260502220023 | 41 | 295 | 3.0 | 6.0 | 0.00 | 0.16 | 0.16 | 62 | 1017.0 |
| 20260502214504 | 41 | 295 | 3.0 | 6.0 | 0.00 | 0.16 | 0.16 | 61 | 1016.9 |
| 20260502213008 | 42 | 273 | 3.0 | 9.0 | 0.00 | 0.16 | 0.16 | 59 | 1016.9 |
| 20260502211509 | 43 | 306 | 5.0 | 9.0 | 0.00 | 0.16 | 0.16 | 58 | 1016.6 |
| 20260502210016 | 43 | 305 | 3.0 | 11.0 | 0.00 | 0.16 | 0.16 | 58 | 1016.5 |
| 20260502204520 | 44 | 320 | 3.0 | 7.0 | 0.00 | 0.16 | 0.16 | 56 | 1016.5 |
| 20260502203026 | 45 | 299 | 7.0 | 11.0 | 0.00 | 0.16 | 0.16 | 51 | 1016.4 |
| 20260502201508 | 44 | 272 | 5.0 | 9.0 | 0.00 | 0.16 | 0.16 | 51 | 1016.5 |
| 20260502200012 | 44 | 249 | 4.0 | 10.0 | 0.00 | 0.16 | 0.16 | 52 | 1016.6 |
| 20260502194528 | 44 | 282 | 3.0 | 8.0 | 0.00 | 0.16 | 0.16 | 49 | 1016.6 |
| 20260502193022 | 44 | 245 | 3.0 | 9.0 | 0.00 | 0.17 | 0.16 | 51 | 1016.7 |
| 20260502191523 | 44 | 306 | 4.0 | 8.0 | 0.00 | 0.18 | 0.16 | 52 | 1016.8 |
| 20260502190012 | 44 | 315 | 2.0 | 7.0 | 0.00 | 0.19 | 0.16 | 54 | 1016.9 |
| 20260502184521 | 44 | 239 | 4.0 | 7.0 | 0.00 | 0.19 | 0.16 | 58 | 1017.2 |
| 20260502183018 | 44 | 301 | 2.0 | 10.0 | 0.00 | 0.20 | 0.16 | 59 | 1017.2 |
| 20260502181529 | 44 | 278 | 3.0 | 9.0 | 0.00 | 0.21 | 0.16 | 60 | 1017.2 |
| 20260502163020 | 39 | 287 | 2.0 | 5.0 | 0.00 | 0.27 | 0.16 | 74 | 1017.8 |
| 20260502161505 | 38 | 304 | 0.0 | 3.0 | 0.00 | 0.28 | 0.16 | 79 | 1017.8 |
| 20260502151527 | 37 | 27 | 0.0 | 5.0 | 0.00 | 0.39 | 0.16 | 82 | 1017.6 |
| 20260502123034 | 35 | 100 | 0.0 | 3.0 | 0.04 | 0.50 | 0.14 | 90 | 1016.8 |
| 20260502121505 | 34 | 256 | 0.0 | 3.0 | 0.05 | 0.49 | 0.13 | 90 | 1016.7 |
| 20260502114518 | 34 | 75 | 0.0 | 3.0 | 0.04 | 0.46 | 0.10 | 89 | 1016.6 |
| 20260502113020 | 34 | 339 | 0.0 | 1.0 | 0.05 | 0.46 | 0.10 | 89 | 1016.4 |
| 20260502111522 | 35 | 340 | 0.0 | 1.0 | 0.04 | 0.44 | 0.08 | 89 | 1016.4 |
| 20260502110029 | 35 | 6 | 0.0 | 1.0 | 0.04 | 0.43 | 0.07 | 89 | 1016.4 |
| 20260502104510 | 35 | 105 | 0.0 | 2.0 | 0.03 | 0.42 | 0.06 | 88 | 1016.2 |
| 20260502103019 | 36 | 315 | 0.0 | 2.0 | 0.02 | 0.41 | 0.05 | 88 | 1016.0 |
| 20260502101522 | 36 | 58 | 0.0 | 1.0 | 0.01 | 0.40 | 0.04 | 88 | 1015.9 |
| 20260502091518 | 36 | 79 | 0.0 | 3.0 | 0.00 | 0.39 | 0.03 | 88 | 1015.6 |
| 20260502071527 | 37 | 78 | 4.0 | 6.0 | 0.01 | 0.39 | 0.03 | 88 | 1015.4 |
| 20260502070030 | 37 | 96 | 2.0 | 4.0 | 0.00 | 0.38 | 0.02 | 88 | 1015.6 |
| 20260502064522 | 37 | 92 | 0.0 | 2.0 | 0.01 | 0.38 | 0.02 | 88 | 1015.6 |
| 20260502063026 | 38 | 84 | 0.0 | 2.0 | 0.01 | 0.38 | 0.02 | 88 | 1015.9 |
| 20260502061535 | 38 | 323 | 0.0 | 2.0 | 0.01 | 0.38 | 0.02 | 87 | 1016.0 |
| 20260502060013 | 38 | 318 | 0.0 | 2.0 | 0.01 | 0.38 | 0.02 | 87 | 1016.1 |
| 20260502054519 | 38 | 314 | 0.0 | 4.0 | 0.00 | 0.37 | 0.01 | 87 | 1016.3 |
| 20260502053025 | 39 | 323 | 0.0 | 4.0 | 0.01 | 0.37 | 0.01 | 87 | 1016.5 |
| 20260502051519 | 39 | 288 | 1.0 | 2.0 | 0.01 | 0.37 | 0.01 | 87 | 1016.3 |
| 20260502050012 | 39 | 315 | 0.0 | 2.0 | 0.01 | 0.37 | 0.01 | 87 | 1016.4 |
| 20260502044517 | 39 | 285 | 0.0 | 1.0 | 0.01 | 0.37 | 0.01 | 87 | 1016.4 |
| 20260502043024 | 39 | 285 | 0.0 | 1.0 | 0.00 | 0.36 | 0.00 | 87 | 1016.5 |
| 20260502041529 | 39 | 281 | 0.0 | 1.0 | 0.00 | 0.36 | 0.00 | 86 | 1016.6 |
| 20260502040013 | 39 | 284 | 0.0 | 0.0 | 0.00 | 0.36 | 0.00 | 85 | 1016.5 |
| 20260502034510 | 39 | 284 | 0.0 | 0.0 | 0.00 | 0.36 | 0.36 | 85 | 1016.3 |
| 20260502033024 | 39 | 284 | 0.0 | 0.0 | 0.00 | 0.36 | 0.36 | 85 | 1016.2 |